DLH99P LEBB-EDDM

Flight info

Callsign DLH99P
Flight time N/A
Altitude 13000
Route SSN N10 PPN/N0421F380 DCT LATEK DCT GONUP DCT TOU DCT GAI DCT MEN DCT NINUN DCT LATAM DCT ETREK DCT LTP DCT SOPLO DCT OMASI DCT KINNI DCT SOSAL DCT KORED DCT BERSU DCT DITON/N0427F390 DCT NUNRI T103 BETOS BETOS1A
Aircraft A20N/M-SDE2E3FGIJ1LORWXYZ/HB1

Departure

Time 2026-04-30 14:43
Airport Bilbao Airport (LEBB)

Arrival

Time N/A
Airport Munich Airport (EDDM)
Time Latitude Longitude Altitude Speed Heading
2026-04-30 13:39 43.30426 -2.90637 152 ft 0 kts 25°
2026-04-30 14:33 43.30409 -2.90658 150 ft 2 kts 69°
2026-04-30 14:33 43.30406 -2.90670 149 ft 1 kts 74°
2026-04-30 14:34 43.30404 -2.90680 149 ft 1 kts 59°
2026-04-30 14:34 43.30399 -2.90689 148 ft 1 kts 46°
2026-04-30 14:34 43.30393 -2.90698 148 ft 3 kts 46°
2026-04-30 14:34 43.30385 -2.90726 146 ft 3 kts 108°
2026-04-30 14:35 43.30386 -2.90730 146 ft 0 kts 116°
2026-04-30 14:39 43.30368 -2.90683 146 ft 13 kts 118°
2026-04-30 14:39 43.30304 -2.90577 144 ft 16 kts 145°
2026-04-30 14:39 43.30209 -2.90535 140 ft 15 kts 201°
2026-04-30 14:40 43.30087 -2.90493 136 ft 18 kts 114°
2026-04-30 14:40 43.30029 -2.90331 139 ft 9 kts 117°
2026-04-30 14:40 43.29975 -2.90190 140 ft 24 kts 118°
2026-04-30 14:40 43.29905 -2.89986 140 ft 27 kts 114°
2026-04-30 14:41 43.29837 -2.89820 139 ft 20 kts 119°
2026-04-30 14:41 43.29769 -2.89628 140 ft 7 kts 112°
2026-04-30 14:41 43.29701 -2.89604 138 ft 8 kts 227°
2026-04-30 14:41 43.29699 -2.89609 138 ft 3 kts 231°
2026-04-30 14:42 43.29640 -2.89699 137 ft 21 kts 237°
2026-04-30 14:42 43.29647 -2.89803 137 ft 14 kts 295°
2026-04-30 14:42 43.29815 -2.90258 137 ft 99 kts 296°
2026-04-30 14:42 43.30243 -2.91434 177 ft 168 kts 296°
2026-04-30 14:43 43.30795 -2.92925 875 ft 186 kts 296°
2026-04-30 14:43 43.31443 -2.94634 1510 ft 219 kts 297°
2026-04-30 14:43 43.32211 -2.96598 2242 ft 252 kts 298°
2026-04-30 14:43 43.33145 -2.98810 2899 ft 285 kts 305°
2026-04-30 14:44 43.34600 -3.00918 3465 ft 318 kts 316°
2026-04-30 14:44 43.36276 -3.03093 4098 ft 341 kts 316°
2026-04-30 14:44 43.38022 -3.05357 4742 ft 356 kts 316°
2026-04-30 14:44 43.39981 -3.07452 5724 ft 356 kts 332°
2026-04-30 14:45 43.42287 -3.08446 7230 ft 342 kts 353°
2026-04-30 14:45 43.44605 -3.08206 8751 ft 329 kts 15°
2026-04-30 14:45 43.46621 -3.06891 10243 ft 314 kts 36°
2026-04-30 14:45 43.48156 -3.04856 11704 ft 299 kts 53°
2026-04-30 14:46 43.49116 -3.02340 12763 ft 302 kts 74°
2026-04-30 14:46 43.49559 -2.99448 13120 ft 325 kts 81°
2026-04-30 14:46 43.49909 -2.96248 13400 ft 349 kts 82°
2026-04-30 14:46 43.50255 -2.92881 14002 ft 359 kts 82°
2026-04-30 14:47 43.50621 -2.89456 14825 ft 363 kts 82°
2026-04-30 14:47 43.51007 -2.85999 15612 ft 367 kts 81°
2026-04-30 14:47 43.51409 -2.82490 16376 ft 372 kts 81°
2026-04-30 14:47 43.51815 -2.78994 17106 ft 376 kts 81°
2026-04-30 14:48 43.52230 -2.75420 17821 ft 380 kts 81°
2026-04-30 14:48 43.52649 -2.71805 18522 ft 384 kts 81°
2026-04-30 14:48 43.53069 -2.68157 19203 ft 388 kts 81°
2026-04-30 14:48 43.53495 -2.64453 19879 ft 392 kts 81°
2026-04-30 14:49 43.53921 -2.60721 20520 ft 396 kts 81°
2026-04-30 14:49 43.54349 -2.56957 21151 ft 400 kts 81°
2026-04-30 14:49 43.54780 -2.53148 21766 ft 404 kts 81°
2026-04-30 14:49 43.55215 -2.49295 22367 ft 407 kts 81°
2026-04-30 14:50 43.56091 -2.41502 23525 ft 415 kts 81°
2026-04-30 14:50 43.56533 -2.37553 24092 ft 418 kts 81°
2026-04-30 14:51 43.57423 -2.29551 25221 ft 423 kts 81°
2026-04-30 14:51 43.57863 -2.25570 25725 ft 427 kts 81°
2026-04-30 14:51 43.58256 -2.22020 26093 ft 432 kts 81°
2026-04-30 14:52 43.58711 -2.17899 26562 ft 435 kts 82°
2026-04-30 14:52 43.59621 -2.09587 27483 ft 441 kts 82°
2026-04-30 14:52 43.60078 -2.05390 27916 ft 444 kts 82°
2026-04-30 14:53 43.60990 -1.96961 28717 ft 450 kts 82°
2026-04-30 14:53 43.61452 -1.92675 29092 ft 452 kts 82°
2026-04-30 14:54 43.62377 -1.84029 29816 ft 458 kts 82°
2026-04-30 14:54 43.63307 -1.75282 30530 ft 463 kts 82°
2026-04-30 14:55 43.64240 -1.66439 31252 ft 467 kts 82°
2026-04-30 14:55 43.64706 -1.61993 31696 ft 466 kts 82°
2026-04-30 14:55 43.65630 -1.53138 32594 ft 464 kts 82°
2026-04-30 14:56 43.66542 -1.44325 33429 ft 463 kts 82°
2026-04-30 14:56 43.67439 -1.35586 33868 ft 460 kts 82°
2026-04-30 14:57 43.67886 -1.31209 33972 ft 459 kts 82°
2026-04-30 14:58 43.69656 -1.13705 34001 ft 459 kts 82°
2026-04-30 14:58 43.70966 -1.00563 34000 ft 459 kts 82°
2026-04-30 15:00 43.73110 -0.78711 34001 ft 459 kts 82°
2026-04-30 15:01 43.74801 -0.61164 34001 ft 459 kts 83°
2026-04-30 15:01 43.76043 -0.48078 34001 ft 459 kts 83°
2026-04-30 15:02 43.76869 -0.39293 34000 ft 459 kts 83°
2026-04-30 15:03 43.78900 -0.17354 33999 ft 459 kts 83°
2026-04-30 15:04 43.80886 0.04559 34001 ft 459 kts 83°
2026-04-30 15:06 43.82409 0.21699 34000 ft 459 kts 83°
2026-04-30 15:07 43.83816 0.37799 34000 ft 459 kts 83°
2026-04-30 15:08 43.85326 0.55396 34000 ft 459 kts 83°
2026-04-30 15:09 43.86031 0.63723 34000 ft 459 kts 83°
2026-04-30 15:10 43.86953 0.74716 34000 ft 459 kts 83°
2026-04-30 15:11 43.89119 1.01088 34001 ft 459 kts 84°
2026-04-30 15:13 43.90884 1.23142 34001 ft 459 kts 84°
2026-04-30 15:14 43.93276 1.53957 34001 ft 459 kts 84°
2026-04-30 15:17 44.00163 1.91903 34521 ft 461 kts 55°
2026-04-30 15:18 44.09244 2.10185 35950 ft 457 kts 55°
2026-04-30 15:19 44.14639 2.21095 35999 ft 456 kts 55°